Liberal, KS

10:20 AM CDT on October 19, 2019 (GMT -0500)
Liberal Municipal

Weather History for KLBL - September, 2019

Change the Weather History Date:

Saturday, September 21, 2019

  Actual Average Record
Temperature  
Mean Temperature 78 °F -  
Max Temperature 91 °F 81 °F 98 °F (1977)
Min Temperature 64 °F 53 °F 36 °F (1983)
Cooling Degree Days 12    
Growing Degree Days 28 (Base 50)    
Moisture  
Dew Point 64 °F    
Average Humidity 72    
Maximum Humidity 97    
Minimum Humidity 36    
Precipitation  
Precipitation 0.00 in - - ()
Sea Level Pressure  
Sea Level Pressure 29.83 in    
Wind  
Wind Speed 15 mph ()    
Max Wind Speed 28 mph    
Max Gust Speed 34 mph    
Visibility 10.0 miles    
Events      
Averages and records for this station are not official NWS values.
T = Trace of Precipitation, MM = Missing Value Source: Averaged Metar Reports

Daily Weather History Graph

Daily Weather History Graph

Search for Another Location

Airport or City:

Astronomy

Sep. 21, 2019 Rise Set
Actual Time 7:30 AM CDT 7:42 PM CDT
Civil Twilight 7:04 AM CDT 8:08 PM CDT
Nautical Twilight 6:34 AM CDT 8:38 PM CDT
Astronomical Twilight 6:03 AM CDT 9:09 PM CDT
Moon No Moon Rise 2:29 PM CDT (9/21)
Length of Visible Light 13h 03m
Length of Day
12h 11m
Waning Gibbous, 54% of the Moon is Illuminated
Sep 21
Waning Gibbous
Sep 21
Last Quarter
Sep 28
New
Oct 5
First Quarter
Oct 13
Full

Hourly Weather History & Observations

Time (CDT) Temp. Heat Index Dew Point Humidity Pressure Visibility Wind Dir Wind Speed Gust Speed Precip Events Conditions
12:56 AM 69.1 °F - 64.9 °F 87% 29.83 in 10.0 mi South 15.0 mph - N/A   Clear
1:56 AM 66.9 °F - 64.0 °F 90% 29.83 in 10.0 mi South 16.1 mph - N/A   Clear
2:42 AM 68.0 °F - 64.4 °F 88% 29.92 in 10.0 mi South 18.4 mph 25.3 mph N/A   Mostly Cloudy
2:56 AM 68.0 °F - 64.9 °F 90% 29.82 in 10.0 mi South 15.0 mph 23.0 mph N/A   Mostly Cloudy
3:05 AM 68.0 °F - 64.4 °F 88% 29.91 in 10.0 mi South 15.0 mph 21.9 mph N/A   Scattered Clouds
3:56 AM 66.9 °F - 64.9 °F 93% 29.83 in 10.0 mi South 11.5 mph - N/A   Clear
4:56 AM 64.9 °F - 64.0 °F 97% 29.84 in 10.0 mi South 10.4 mph - N/A   Clear
5:56 AM 66.9 °F - 64.0 °F 90% 29.85 in 10.0 mi SSW 13.8 mph - N/A   Overcast
6:56 AM 66.9 °F - 64.9 °F 93% 29.86 in 10.0 mi SSW 13.8 mph - N/A   Scattered Clouds
7:56 AM 66.9 °F - 64.9 °F 93% 29.88 in 10.0 mi SSW 13.8 mph - N/A   Clear
8:56 AM 69.1 °F - 64.9 °F 87% 29.89 in 10.0 mi South 15.0 mph - N/A   Clear
9:56 AM 75.0 °F - 64.9 °F 71% 29.88 in 10.0 mi SSW 23.0 mph 31.1 mph N/A   Clear
10:56 AM 78.1 °F - 66.0 °F 66% 29.87 in 10.0 mi SSW 27.6 mph 34.5 mph N/A   Clear
11:56 AM 82.0 °F 84.1 °F 66.0 °F 58% 29.85 in 10.0 mi SSW 20.7 mph 29.9 mph N/A   Partly Cloudy
12:56 PM 84.9 °F 87.1 °F 66.0 °F 53% 29.83 in 10.0 mi SSW 17.3 mph 27.6 mph N/A   Clear
1:56 PM 88.0 °F 89.3 °F 64.0 °F 45% 29.81 in 10.0 mi SSW 16.1 mph 27.6 mph N/A   Clear
2:56 PM 89.1 °F 89.0 °F 61.0 °F 39% 29.78 in 10.0 mi SSW 17.3 mph 27.6 mph N/A   Clear
3:56 PM 91.0 °F 90.9 °F 61.0 °F 36% 29.75 in 10.0 mi South 26.5 mph 34.5 mph N/A   Clear
4:56 PM 89.1 °F 89.3 °F 62.1 °F 40% 29.75 in 10.0 mi South 25.3 mph 29.9 mph N/A   Clear
5:56 PM 86.0 °F 87.3 °F 64.0 °F 48% 29.75 in 10.0 mi South 25.3 mph 34.5 mph N/A   Partly Cloudy
6:56 PM 79.0 °F - 57.9 °F 48% 29.78 in 10.0 mi South 24.2 mph 29.9 mph N/A   Clear
7:56 PM 73.9 °F - 60.1 °F 62% 29.80 in 10.0 mi South 21.9 mph 33.4 mph N/A   Clear
8:56 PM 73.9 °F - 64.9 °F 73% 29.80 in 10.0 mi South 24.2 mph 32.2 mph N/A   Clear
9:56 PM 73.0 °F - 64.9 °F 76% 29.79 in 10.0 mi South 17.3 mph 23.0 mph N/A   Clear
10:56 PM 72.0 °F - 66.0 °F 81% 29.81 in 10.0 mi South 17.3 mph - N/A   Clear
11:56 PM 70.0 °F - 64.0 °F 81% 29.80 in 10.0 mi South 15.0 mph - N/A   Clear